[[{"header":{"parameterUnit":"m.s-1","parameterCategory":1,"la1":30.2991,"la2":30.254,"lo1":-89.0895,"lo2":-89.0444,"dy":0.0017,"dx":0.0017,"nx":28,"ny":28,"refTime":"2025-05-22T09:00:00:Z","depth":0,"parameterNumber":2,"parameterNumberName":"U-component_of_WINDS"},"data":[0,0,0,0,0,0,0,0,0,0,0,0,0,0,0,0,0,0,0,0,0,0,0,0,0,0,0,0,0,0,0,0,0,0,0,0,0,0,0,0,0,0,0,0,0,0,0,0,0,0,0,0,0,0,0,0,0,0,-1.0343,-1.0343,0,-1.03,-1.0299,-1.0299,-1.0199,-1.0197,-1.0195,-1.0193,-1.0151,-1.0152,-1.0153,0,0,0,0,0,0,0,0,0,0,0,0,0,-1.0342,-1.0343,-1.0343,-1.0343,-1.0342,-1.03,-1.0299,-1.0299,-1.02,-1.0197,-1.0195,-1.0192,-1.0151,-1.0152,-1.0153,0,0,0,0,0,0,0,0,0,0,0,0,0,-1.0325,-1.0343,-1.0343,-1.0288,-1.0282,-1.03,-1.0299,-1.0298,-1.02,-1.0197,-1.0194,-1.0191,-1.0151,-1.0152,-1.0153,-1.0222,0,0,-1.0157,-1.0157,0,0,0,0,0,0,0,0,-1.0326,-1.0325,-1.0296,-1.0292,-1.0286,-1.0252,-1.0283,-1.0273,-1.0201,-1.0232,-1.0193,-1.019,-1.0187,-1.0185,-1.0184,-1.022,-1.0218,-1.0157,-1.0158,-1.0158,-1.0158,0,0,0,0,0,0,0,-1.0327,-1.0327,-1.0326,-1.0296,-1.029,-1.0265,-1.0259,-1.0281,-1.0227,-1.0229,-1.0221,-1.0217,-1.0184,-1.0183,-1.0182,-1.0218,-1.0157,-1.0158,-1.0159,-1.0159,-1.0307,-1.031,0,0,0,0,0,0,-1.0336,-1.0328,-1.0327,-1.0325,-1.0299,-1.0268,-1.0261,-1.0266,-1.0227,-1.0218,-1.022,-1.0213,-1.0183,-1.0181,-1.018,-1.0259,-1.0158,-1.0159,-1.016,-1.0304,-1.0307,-1.0311,0,0,0,0,0,0,-1.0337,-1.0337,-1.0329,-1.0324,-1.0321,-1.0271,-1.0277,-1.0267,-1.0266,-1.022,-1.021,-1.0229,-1.018,-1.0179,-1.0212,-1.0256,-1.016,-1.0161,-1.03,-1.0305,-1.0309,-1.0416,0,0,0,0,0,0,-1.0337,-1.0338,-1.0364,-1.0326,-1.0322,-1.0362,-1.028,-1.0268,-1.0268,-1.0258,-1.0226,-1.0218,-1.0178,-1.0211,-1.0213,-1.0256,-1.0162,-1.0296,-1.0302,-1.0308,-1.0409,-1.0424,-1.0437,0,0,0,0,0,-1.0337,-1.0396,-1.0366,-1.0366,-1.0353,-1.0365,-1.0363,-1.0314,-1.0272,-1.0297,-1.0268,-1.0219,-1.025,-1.0215,-1.0217,-1.0261,-1.0293,-1.03,-1.0307,-1.0402,-1.0421,-1.0437,0,0,0,0,0,0,-1.0443,-1.0391,-1.0356,-1.0404,-1.0389,-1.0348,-1.0379,-1.0336,-1.0334,-1.0325,-1.0265,-1.0259,-1.03,-1.0283,-1.0245,-1.0325,-1.0263,-1.0271,-1.0335,-1.0353,-1.0367,-1.0371,-1.0163,0,0,0,0,0,-1.0471,-1.0484,-1.0438,-1.0485,-1.0479,-1.043,-1.0434,-1.0397,-1.038,-1.0374,-1.0346,-1.0332,-1.0338,-1.0344,-1.0347,-1.0404,-1.0396,-1.0435,-1.0449,-1.0461,-1.047,-1.0499,-1.0516,-1.0335,-1.0335,-1.0334,0,0,-1.0531,-1.0504,-1.0516,-1.0505,-1.049,-1.0505,-1.0426,-1.0446,-1.0457,-1.0377,-1.0407,-1.0386,-1.0366,-1.0411,-1.043,-1.0398,-1.0518,-1.0471,-1.0481,-1.0483,-1.0508,-1.0525,-1.0541,-1.034,-1.0339,-1.0338,0,0,-1.0648,-1.0629,-1.0666,-1.0651,-1.0627,-1.0594,-1.0603,-1.0567,-1.055,-1.0578,-1.0519,-1.053,-1.0542,-1.053,-1.0526,-1.0635,-1.0591,-1.0638,-1.0714,-1.0743,-1.0758,-1.077,-1.081,-1.0825,-1.0646,-1.0646,-1.0646,0,-1.0727,-1.0747,-1.0691,-1.0714,-1.0711,-1.0637,-1.0674,-1.0662,-1.0642,-1.0642,-1.0606,-1.0618,-1.06,-1.0641,-1.0668,-1.0666,-1.0675,-1.0643,-1.076,-1.0772,-1.0782,-1.082,-1.0835,-1.0652,-1.0651,-1.0651,-1.065,0,-1.0844,-1.0859,-1.0891,-1.0872,-1.0872,-1.0903,-1.0851,-1.0858,-1.0821,-1.0791,-1.0821,-1.0795,-1.0791,-1.0798,-1.0762,-1.0834,-1.0815,-1.077,-1.0708,-1.0807,-1.0841,-1.0855,-1.0661,-1.0659,-1.0657,-1.0655,0,0,-1.103,-1.0977,-1.099,-1.098,-1.0947,-1.0958,-1.0984,-1.0979,-1.0987,-1.0974,-1.0995,-1.1006,-1.0963,-1.0958,-1.092,-1.0945,-1.1034,-1.0896,-1.0895,-1.0925,-1.1113,-1.1149,-1.1167,-1.1003,-1.1005,-1.1007,-1.1115,0,-1.1142,-1.1184,-1.1133,-1.1186,-1.1199,-1.1127,-1.115,-1.1132,-1.1104,-1.1111,-1.108,-1.1089,-1.1032,-1.1028,-1.1049,-1.1019,-1.1072,-1.101,-1.1023,-1.1024,-1.1034,-1.1184,-1.1223,-1.1326,-1.1128,-1.113,-1.1132,0,-1.1279,-1.1271,-1.1326,-1.1288,-1.1291,-1.1313,-1.1304,-1.1311,-1.1289,-1.1266,-1.126,-1.1213,-1.1236,-1.1173,-1.1204,-1.1163,-1.1164,-1.115,-1.1153,-1.1155,-1.1087,-1.1193,-1.1358,-1.1375,-1.1152,-1.1151,-1.1149,0,-1.1412,-1.1414,-1.1447,-1.144,-1.1397,-1.1414,-1.1396,-1.1371,-1.1371,-1.1363,-1.1362,-1.1357,-1.1355,-1.1352,-1.1305,-1.1263,-1.1342,-1.1275,-1.1325,-1.1327,-1.1348,-1.1348,-1.1519,-1.1345,-1.1345,-1.1344,-1.1344,0,-1.1543,-1.158,-1.1506,-1.1527,-1.1565,-1.1505,-1.1545,-1.152,-1.1498,-1.1512,-1.1449,-1.1464,-1.1399,-1.1407,-1.137,-1.1402,-1.1401,-1.1384,-1.1374,-1.1392,-1.1394,-1.1394,-1.1387,-1.1348,-1.1347,-1.1347,-1.1346,0,-1.17,-1.1652,-1.1683,-1.1638,-1.1627,-1.1658,-1.1619,-1.1637,-1.1603,-1.1622,-1.1623,-1.1571,-1.1577,-1.1528,-1.1525,-1.15,-1.155,-1.1527,-1.1558,-1.1552,-1.1606,-1.1603,-1.1785,-1.1807,-1.1617,-1.1619,-1.162,0,-1.1789,-1.1815,-1.1772,-1.1777,-1.1762,-1.1771,-1.177,-1.171,-1.1712,-1.1688,-1.1708,-1.1708,-1.1706,-1.1718,-1.1681,-1.1677,-1.1655,-1.1719,-1.1654,-1.1671,-1.1658,-1.1659,-1.1661,-1.1734,-1.1736,-1.1738,-1.174,0,-1.1952,-1.1926,-1.1927,-1.1919,-1.192,-1.1911,-1.1898,-1.1905,-1.1841,-1.1846,-1.185,-1.1848,-1.1844,-1.1845,-1.1834,-1.1816,-1.1768,-1.1759,-1.1771,-1.1791,-1.1809,-1.1802,-1.1598,-1.1757,-1.1755,-1.1754,-1.1753,-1.1752,-1.2079,-1.2099,-1.2072,-1.2074,-1.2057,-1.2046,-1.206,-1.2027,-1.203,-1.2021,-1.1985,-1.1997,-1.1972,-1.1952,-1.1938,-1.1946,-1.1915,-1.1932,-1.1937,-1.1942,-1.1953,-1.1805,-1.1943,-1.1943,-1.1942,-1.1942,-1.1941,0,-1.2241,-1.2219,-1.2222,-1.2205,-1.2207,-1.2158,-1.214,-1.2146,-1.2156,-1.2136,-1.2134,-1.2139,-1.2139,-1.21,-1.2095,-1.2109,-1.2087,-1.211,-1.211,-1.2107,-1.198,-1.1971,-1.2128,-1.2128,-1.2128,-1.2128,-1.2128,-1.2128,-1.2326,-1.2357,-1.2328,-1.2349,-1.2326,-1.2336,-1.2331,-1.232,-1.2304,-1.2312,-1.2311,-1.2285,-1.2257,-1.225,-1.2248,-1.2236,-1.2238,-1.227,-1.2251,-1.2134,-1.2116,-1.2099,-1.209,-1.227,-1.227,-1.2378,-1.2379,-1.2379]},{"header":{"parameterUnit":"m.s-1","parameterCategory":1,"la1":30.2991,"la2":30.254,"lo1":-89.0895,"lo2":-89.0444,"dy":0.0017,"dx":0.0017,"nx":28,"ny":28,"refTime":"2025-05-22T09:00:00:Z","depth":0,"parameterNumber":3,"parameterNumberName":"V-component_of_WINDS"},"data":[0,0,0,0,0,0,0,0,0,0,0,0,0,0,0,0,0,0,0,0,0,0,0,0,0,0,0,0,0,0,0,0,0,0,0,0,0,0,0,0,0,0,0,0,0,0,0,0,0,0,0,0,0,0,0,0,0,0,-2.6266,-2.6266,0,-2.6312,-2.6313,-2.6313,-2.63,-2.6299,-2.6298,-2.6297,-2.6341,-2.6343,-2.6345,0,0,0,0,0,0,0,0,0,0,0,0,0,-2.6161,-2.6163,-2.6266,-2.6266,-2.6267,-2.6312,-2.6313,-2.6313,-2.63,-2.6299,-2.6298,-2.6297,-2.634,-2.6342,-2.6345,0,0,0,0,0,0,0,0,0,0,0,0,0,-2.6206,-2.6163,-2.6266,-2.6266,-2.6266,-2.6312,-2.6313,-2.6314,-2.6301,-2.6299,-2.6298,-2.6296,-2.6339,-2.6342,-2.6345,-2.6392,0,0,-2.6354,-2.6356,0,0,0,0,0,0,0,0,-2.6204,-2.621,-2.6265,-2.6266,-2.6267,-2.6299,-2.6292,-2.634,-2.6301,-2.6287,-2.6297,-2.6296,-2.6328,-2.6332,-2.6343,-2.6394,-2.6396,-2.6355,-2.6357,-2.6358,-2.6359,0,0,0,0,0,0,0,-2.6201,-2.6208,-2.6284,-2.6266,-2.6267,-2.6262,-2.6267,-2.6301,-2.6315,-2.6288,-2.6288,-2.6294,-2.6328,-2.634,-2.6344,-2.6397,-2.6355,-2.6357,-2.6359,-2.636,-2.6487,-2.6488,0,0,0,0,0,0,-2.6198,-2.6206,-2.6282,-2.6285,-2.6231,-2.6265,-2.6271,-2.629,-2.6314,-2.6317,-2.6295,-2.6293,-2.6336,-2.6341,-2.6346,-2.6401,-2.6358,-2.6361,-2.6362,-2.6485,-2.6487,-2.6489,0,0,0,0,0,0,-2.6196,-2.6205,-2.6281,-2.6245,-2.6255,-2.6269,-2.629,-2.6292,-2.6304,-2.6319,-2.6321,-2.6305,-2.6335,-2.6341,-2.6381,-2.6402,-2.6362,-2.6365,-2.6484,-2.6486,-2.6488,-2.6513,0,0,0,0,0,0,-2.6193,-2.6204,-2.6223,-2.6246,-2.6257,-2.6316,-2.6292,-2.6294,-2.631,-2.6308,-2.633,-2.6332,-2.6334,-2.6376,-2.6384,-2.6406,-2.6367,-2.6482,-2.6485,-2.6487,-2.651,-2.6516,-2.6521,0,0,0,0,0,-2.6189,-2.6227,-2.6224,-2.6233,-2.6281,-2.6318,-2.6323,-2.6327,-2.6312,-2.633,-2.634,-2.6331,-2.6399,-2.638,-2.6389,-2.6412,-2.648,-2.6484,-2.6487,-2.6508,-2.6515,-2.652,0,0,0,0,0,0,-2.6205,-2.623,-2.6227,-2.6274,-2.6294,-2.6315,-2.6338,-2.6334,-2.6357,-2.6354,-2.6356,-2.6361,-2.6401,-2.6411,-2.6389,-2.6458,-2.6437,-2.6443,-2.645,-2.6457,-2.6462,-2.6458,-2.637,0,0,0,0,0,-2.6214,-2.6243,-2.6263,-2.6303,-2.6313,-2.6325,-2.634,-2.6342,-2.6361,-2.6369,-2.6382,-2.64,-2.6425,-2.6442,-2.6466,-2.6512,-2.6516,-2.6532,-2.6537,-2.6542,-2.6545,-2.6569,-2.6576,-2.65,-2.65,-2.65,0,0,-2.6233,-2.6251,-2.6268,-2.6307,-2.6322,-2.6351,-2.6331,-2.6362,-2.6383,-2.6373,-2.6411,-2.6421,-2.6442,-2.6484,-2.6503,-2.6493,-2.6568,-2.6546,-2.6549,-2.6551,-2.6573,-2.6581,-2.6587,-2.6503,-2.6502,-2.6502,0,0,-2.6282,-2.6299,-2.6333,-2.635,-2.6374,-2.6381,-2.6389,-2.6412,-2.6418,-2.6457,-2.645,-2.6474,-2.6518,-2.6532,-2.6546,-2.66,-2.6593,-2.6608,-2.6635,-2.6658,-2.6664,-2.6669,-2.6687,-2.6693,-2.6613,-2.6613,-2.6613,0,-2.6301,-2.6346,-2.6351,-2.6383,-2.6399,-2.6394,-2.6428,-2.6443,-2.6473,-2.6484,-2.6473,-2.6528,-2.6541,-2.6586,-2.66,-2.6611,-2.6619,-2.6605,-2.6663,-2.6668,-2.6673,-2.669,-2.6697,-2.6614,-2.6614,-2.6614,-2.6614,0,-2.6368,-2.6399,-2.6424,-2.6454,-2.6474,-2.6506,-2.6515,-2.6534,-2.6534,-2.6542,-2.658,-2.6597,-2.6624,-2.6635,-2.6634,-2.668,-2.6673,-2.6662,-2.6641,-2.6682,-2.6698,-2.6704,-2.6617,-2.6616,-2.6615,-2.6615,0,0,-2.6426,-2.6461,-2.647,-2.6483,-2.651,-2.6533,-2.6565,-2.6593,-2.6608,-2.663,-2.6655,-2.6693,-2.6684,-2.6698,-2.67,-2.672,-2.6761,-2.6707,-2.6707,-2.6715,-2.681,-2.6816,-2.6824,-2.6757,-2.6758,-2.6759,-2.6808,0,-2.6476,-2.6534,-2.654,-2.6591,-2.6618,-2.6614,-2.6642,-2.666,-2.6669,-2.6692,-2.6701,-2.6727,-2.6713,-2.6722,-2.6743,-2.6752,-2.6779,-2.6748,-2.6778,-2.6779,-2.6772,-2.6833,-2.684,-2.6885,-2.6814,-2.6815,-2.6816,0,-2.6541,-2.6566,-2.662,-2.6643,-2.6654,-2.6679,-2.6705,-2.6728,-2.6749,-2.6753,-2.6771,-2.6769,-2.68,-2.678,-2.6822,-2.68,-2.6813,-2.682,-2.6821,-2.6823,-2.6799,-2.6834,-2.6899,-2.6905,-2.6826,-2.6825,-2.6825,0,-2.6576,-2.6623,-2.6661,-2.6673,-2.6701,-2.6718,-2.673,-2.675,-2.6766,-2.6788,-2.6799,-2.6824,-2.6837,-2.6856,-2.6861,-2.6846,-2.6902,-2.6882,-2.6905,-2.6905,-2.6916,-2.6915,-2.6982,-2.6927,-2.6927,-2.6927,-2.6927,0,-2.663,-2.6663,-2.6677,-2.6701,-2.6737,-2.6743,-2.6778,-2.6789,-2.6807,-2.6831,-2.6829,-2.6851,-2.6857,-2.688,-2.6884,-2.6917,-2.6923,-2.6927,-2.6927,-2.6926,-2.6925,-2.6933,-2.6929,-2.6929,-2.6928,-2.6928,-2.6928,0,-2.6674,-2.6686,-2.6727,-2.675,-2.6757,-2.6782,-2.6802,-2.6823,-2.6832,-2.6862,-2.687,-2.6882,-2.6909,-2.6917,-2.6949,-2.6951,-2.699,-2.6988,-2.6984,-2.6983,-2.7005,-2.7002,-2.7078,-2.7088,-2.7028,-2.7029,-2.7029,0,-2.6707,-2.6732,-2.6759,-2.6776,-2.6789,-2.6816,-2.6833,-2.684,-2.6858,-2.6883,-2.6901,-2.6928,-2.695,-2.6993,-2.7004,-2.7028,-2.7026,-2.7051,-2.7029,-2.7027,-2.7024,-2.7022,-2.7024,-2.7054,-2.7055,-2.7056,-2.7056,0,-2.6763,-2.6767,-2.6793,-2.6821,-2.6841,-2.6863,-2.6884,-2.6897,-2.6907,-2.6927,-2.6955,-2.6972,-2.7005,-2.7032,-2.7056,-2.7067,-2.7062,-2.7063,-2.7069,-2.7067,-2.7063,-2.7064,-2.6993,-2.7061,-2.706,-2.706,-2.706,-2.706,-2.6801,-2.6823,-2.6845,-2.6873,-2.689,-2.691,-2.6931,-2.6943,-2.6967,-2.6996,-2.6999,-2.7029,-2.7048,-2.7081,-2.7093,-2.7116,-2.7108,-2.7117,-2.7119,-2.7121,-2.7122,-2.7061,-2.712,-2.712,-2.712,-2.712,-2.712,0,-2.6855,-2.687,-2.6896,-2.6926,-2.6948,-2.6944,-2.6967,-2.6985,-2.7012,-2.7031,-2.7053,-2.7085,-2.7111,-2.7125,-2.7149,-2.7165,-2.7163,-2.7171,-2.7169,-2.7171,-2.7129,-2.712,-2.7172,-2.7172,-2.7172,-2.7172,-2.7172,-2.7172,-2.6886,-2.6923,-2.693,-2.6974,-2.6988,-2.7019,-2.7032,-2.705,-2.7065,-2.7101,-2.7123,-2.7133,-2.7149,-2.7175,-2.7198,-2.7201,-2.721,-2.7218,-2.722,-2.718,-2.7174,-2.7169,-2.7161,-2.722,-2.722,-2.726,-2.7261,-2.7261]}]]